TIANWANG 1B (TW-1B)
1 40927U 15051C   19325.28748876  .00011502  00000-0  15928-3 0  9991
2 40927  97.1191  10.4475 0007814 152.1807 270.5032 15.57216098234201
TIANWANG 1A (TW-1A)
1 40928U 15051D   19325.45785450  .00002238  00000-0  55211-4 0  9996
2 40928  97.1313 353.2644 0009532 221.6069 244.2001 15.41546646233161
LAPAN A2
1 40931U 15052B   19324.69785557 -.00020420  00000-0 -29507-2 0  9996
2 40931   5.9963  31.2247 0013118 192.9224 166.9491 14.76583141224210
LQSAT
1 40958U 15057A   19325.24962188  .00000003  00000-0  80710-5 0  9998
2 40958  97.8823  30.1044 0019570 101.5712 258.7694 14.73096983221709
CHUBUSAT 2
1 41338U 16012B   19324.92191720 +.00000298 +00000-0 +16430-4 0  9996
2 41338 031.0029 238.2265 0013896 201.4654 158.5400 15.00210704206240
CHUBUSAT 3
1 41339U 16012C   19325.13955280  .00000270  00000-0  14168-4 0  9996
2 41339  31.0118 234.7376 0013814 211.6522 148.3289 15.00381779206277
OUFTI-1
1 41458U 16025C   19324.73369224 +.00002288 +00000-0 +11890-3 0  9993
2 41458 098.1009 059.4729 0165178 195.1721 164.4519 15.06212283195905
E-STAR-2
1 41459U 16025D   19325.25333919  .00001564  00000-0  83209-4 0  9994
2 41459  98.1006  59.5866 0166854 194.9577 164.6681 15.05823449195952
AAUSAT 4
1 41460U 16025E   19325.22775064  .00002527  00000-0  12859-3 0  9996
2 41460  98.0963  61.2139 0156263 186.3336 173.6021 15.07858782196105
NUSAT 1
1 41557U 16033B   19325.24881090  .00001242  00000-0  48733-4 0  9995
2 41557  97.4135  51.8313 0015319 106.6944 253.5978 15.27543076193836
BEESAT 4
1 41619U 16040W   19324.80651101 +.00001429 +00000-0 +62778-4 0  9993
2 41619 097.3498 024.0100 0010945 189.6668 170.4360 15.23474836177473
PRATHAM
1 41783U 16059A   19325.19385401  .00000054  00000-0  19683-4 0  9995
2 41783  98.0485  21.1832 0032317 254.2449 105.5188 14.63021585168280
ALSAT 1N
1 41789U 16059G   19325.39132282  .00000062  00000-0  20708-4 0  9999
2 41789  98.0514  23.7164 0027219 242.1539 117.6907 14.64277145168432
NAYIF 1
1 42017U 17008BX  19324.87445576 +.00001557 +00000-0 +63537-4 0  9991
2 42017 097.3869 030.2557 0005881 358.1933 001.9283 15.25908731153580
MAX VALIER SAT
1 42778U 17036P   19325.26674804  .00000947  00000-0  44075-4 0  9996
2 42778  97.3358  19.3579 0013332  44.3412 315.8889 15.22258519133907
